Погода Игнасино

Погода Игнасино : погода сейчас, прогноз погоды и архив. Всё, что Вы хотите узнать о погоде Игнасино!

Хотите узнать прогноз погоды Игнасино? Тогда Вам сюда: Погода Игнасино

Поиск расширенной информации на нашем сайте:

Другие новости

Новости СМИ2

Главная страница сайта

Новости сайта

03.07.2017

Напоминаем, что на нашем специализированном сайте Метеоцентр.Азия вы можете получить высокодетализированные автоматические прогнозы погоды по пунктам России, СНГ и мира в авиационном формате (включающие направление и скорость ветра, видимость, явления погоды, количество и форму облачности, нижнюю и верхнюю границу облачности).

Рекомендуем: Нижнее белье для полных красивое женское нижнее белье.

Погода Игнасино - сегодня

Время (UTC), дата Ветер
(°,м/с) 
Видим.   Явления Облачность Т
(°С)
Тd
(°С)
f(%) Тe
(°С)
Pmin
(гПа)
dP
(гПа)
Po
(мм)
O2
(г/м3)
Тmin Tmax R s Состояние
почвы
09 17.09.17 160 (Ю) 20000 м    1/0 верхняя 
[Ci fib]
+19.3 +7.1 45 +21  1003  -0.9  727  272           
12 17.09.17 030 (СВ) 20000 м    ясно 
+9.3 +6.7 84 +10  1005.4  1.2  728  282    +21.6       
15 17.09.17 010 (С) 20000 м    ясно 
+5.1 +4.1 93 +4  1005.5  -0.5  728  287           
18 17.09.17 010 (С) 20000 м    ясно 
+3.3 +2.7 96 +3  1005.5  -0.2  727  289           
21 17.09.17 010 (С) 20000 м    ясно 
+5.1 +4.1 93 +4  1005.5  -0.5  728  287           
00 18.09.17 120 (ЮВ) 0800 м  туман  ?/?  
+8.1 +7.7 97 +8  1005.2  0.2  728  283  +2.5        сухая 
03 18.09.17 120 (ЮВ) 20000 м  {туман}  10/10 600 м кучево-дожд. 
[Cb cap]
+11 +8.7 86 +11  1004  -0.8  727  280           
06 18.09.17 200 (Ю) 20000 м  {туман}  10/10 600 м кучево-дожд. 
[Cb cap]
+13.4 +10.4 82 +17  1002.2  -1.4  726  277           
09 18.09.17 270 (З) 20000 м    3/0 верхняя 
[Ci fib]
+16.3 +11.2 72 +21  1000.9  -1  725  274           
15 18.09.17 тихо ()   0500 м  туман  ?/?  
+6.5 +6.1 97 +7  1005.2  1.3  728  285           
18 18.09.17 020 (С) 0500 м  туман  ?/?  
+6.4 +6 97 +7  1006.5  1.2  728  286           
21 18.09.17 тихо ()   20000 м  в посл. час туман  9/0 средняя 
[Ac trans]
+6.4 +6 97 +6  1008.7  2.1  730  286           
00 19.09.17 310 (СЗ) 20000 м  {ливн. осадки, туман}  9/6 600 м кучево-дожд., средняя 
[Cb cap|Ac trans]
+9 +5.7 80 +9  1010  1.6  731  284  +6.2    0.0    влажная 
06 19.09.17 300 (СЗ) 20000 м    3/3 1000 м 
[Sc diur, vesp]
+16 +3.3 43 +16  1008.2  -1.1  730  277           
09 19.09.17 290 (З) 20000 м    10/0 средняя, верхняя 
[Ac lent|Cs]
+14 +0.9 41 +14  1009  0.6  731  280           
12 19.09.17 040 (СВ) 20000 м    ясно 
+4.5 +0.4 75 +5  1011.5  1.2  732  290    +16.4       
15 19.09.17 360 (С) 20000 м    ясно 
+0.2 -1.4 89 -2  1013.5  1.4  733  295           
18 19.09.17 360 (С) 20000 м    ясно 
-2.1 -2.9 94 -4  1013.8  733  298           
21 19.09.17 360 (С) 20000 м    4/4 1000 м 
[Sc]
-2.5 -3.2 95 -4  1013.5  -0.4  733  298           
00 20.09.17 020 (С) 20000 м    5/0 верхняя 
[Ci fib]
-0.3 -1.6 91 1013.3  0.1  733  296  +10.2         
03 20.09.17 200 (Ю) 20000 м    3/0 верхняя 
[Ci fib]
+11.6 +3.4 57 +13  1009.5  -2.2  731  282           
06 20.09.17 090 (В) 20000 м    1/0 верхняя 
[Cc]
+18.2 +2.5 35 +20  1005.4  -3.2  729  275           
09 20.09.17 090 (В) 20000 м    4/0 верхняя 
[Cc]
+17.7 +2.3 36 +18  1004.8  -0.7  728  275           
12 20.09.17 040 (СВ) 20000 м    3/0 средняя 
[Ac lent]
+6.6 +2.9 77 +8  1007.2  729  286    +19       
15 20.09.17 020 (С) 20000 м    ясно 
+3.3 +0.9 84 +4  1007.3  -0.3  729  290           
Время (UTC), дата Ветер
(°,м/с) 
Видим.   Явления Облачность Т
(°С)
Тd
(°С)
f(%) Тe
(°С)
Pmin
(гПа)
dP
(гПа)
Po
(мм)
O2
(г/м3)
Тmin Tmax R s Состояние
почвы

Для получения пояснительной информации подведите курсор к названию столбца.

ПОГОДА Игнасино - архив

Всё, что Вы хотите узнать о погоде Игнасино - удобно и подробно!

Выберите нужную дату (начиная с 1 января 2015* года) и нажмите кнопку "Найти".
Будут отображены архивные сводки погоды по пункту Игнасино, начиная с указанной даты.


Отображать данные в формате CSV (для использования в таблицах Excel)


Внимание! Наш архив погоды предназначен исключительно для личного некоммерческого использования в познавательных целях. Если Вам необходимы официальные справки о состоянии погоды (для производственных, юридических, коммерческих и т.п. целей), обращайтесь в органы Росгидромета.

*Примечание: данная дата относится к архиву по метеостанциям СССР (Россия, СНГ, Балтия).
Архив по метеостанциям Зарубежной Европы и Азии (кроме Китая) хранится 10 дней, по другим регионам земного шара (Китай, Африка, Америка, Австралия, Океания) - 1 день.

Игнасино - район местоположения метеостанции


Название, широта, долгота, высота метеостанции:
Игнасино 53.5°ш. 122.4°д. 295 м над ур. моря [Российская Федерация]

Дополнительная информация

В oтличие oт бoльшинства пoгoдных сайтoв мы публикуем пoдрoбную метеoинфoрмацию в детальнoм прoфессиoнальнoм фoрмате.

Характеристики температуры и влажнoсти вoздуха измеряются на высoте 2 м в тени вдали oт зданий и деревьев.
Скoрoсть ветра измеряется на высoте 10 м (на урoвне рoста челoвека скoрoсть ветра ниже в 1.5-2 раза). Если метеoстанция нахoдится в гoрoде или в лесу, тo скoрoсть ветра занижена на 2-4 м/с пo сравнению с oткрытым местoм. Скoрoсть ветра над акватoриями крупных рек и oзёр, а также на вершинах хoлмoв на 2-5 м/с выше, чем в oбычных услoвиях.
Атмoсфернoе давление в разных тoчках местнoсти мoжет значительнo oтличаться oт давления на метеoстанции, в зависимoсти oт услoвий рельефа (при пoдъёме на 10 м давление пoнижается примернo на 1 мм рт.ст.).